Location: Newark
(35.1686°N, 108.2815°E)
Time: 04:52:12
(UTC+00:00)

Hubble Space Telescope - Pass Details

Date: 10 April 2020
Orbit: 536 x 540 km, 28.5° (Epoch: 30 May)

Event Time Altitude Azimuth Distance (km) Brightness Sun altitude
Rises 12:21:52 0° 251° (WSW) 2,666 5.2 -13.9°
Reaches altitude 10° 12:24:17 10° 241° (WSW) 1,776 4.0 -14.3°
Maximum altitude 12:27:57 32° 178° (S) 934 1.8 -15.0°
Enters shadow 12:29:21 25° 140° (SE) 1,101 1.8 -15.3°
